Regional Weather Roundup
Issued by NWS

Home | Current Version | Previous Version | Graphics & Text | Print | Product List | Glossary Off
Versions: 1 2 3 4 5 6 7 8 9 10 11 12 13 14 15 16 17 18 19 20 21 22 23 24 25 26 27 28 29 30 31 32 33 34 35 36 37 38 39 40 41 42 43 44 45 46 47 48 49 50

000
ASUS43 KMKX 291400
RWRWI

WISCONSIN REGIONAL WEATHER ROUNDUP
NATIONAL WEATHER SERVICE MILWAUKEE/SULLIVAN WI
900 AM CDT WED JUL 29 2015

NOTE: "FAIR" INDICATES FEW OR NO CLOUDS BELOW 12,000 FEET WITH NO
SIGNIFICANT WEATHER AND/OR OBSTRUCTIONS TO VISIBILITY.

WIZ001-002-006>008-014>016-023>028-291500-
NORTHWEST WISCONSIN

CITY           SKY/WX    TMP DP  RH WIND       PRES   REMARKS
SUPERIOR ARPT  CLOUDY    67  53  61 SW15G21   29.74S
ASHLAND        CLOUDY    68  53  58 SW17G29   29.76S
HAYWARD        SUNNY     69  50  50 SW16G32   29.83S
SIREN          SUNNY     68  51  53 W16G26    29.85S
CUMBERLAND     SUNNY     66  48  52 W23G30    29.88S
RICE LAKE      SUNNY     68  50  52 SW16G23   29.90R
CHETEK         SUNNY     69  53  55 SW7G22    29.89S
LADYSMITH      SUNNY     69  52  54 W18G24    29.89S
EAU CLAIRE     NOT AVBL
MENOMONIE      SUNNY     72  50  46 SW13G28   29.92R
NEW RICHMOND   SUNNY     71  48  43 W20G30    29.91F
OSCEOLA        SUNNY     70  51  50 SW20      29.93S
$$

WIZ003>005-009-010-017-018-291500-
NORTH CENTRAL WISCONSIN

CITY           SKY/WX    TMP DP  RH WIND       PRES   REMARKS
MANITOWISH WTR SUNNY     67  51  56 SW17G29   29.82F
ARBOR VITAE    SUNNY     69  52  53 SW15G28   29.84F
WOODRUFF       SUNNY     69  52  53 SW15G28   29.84F
RHINELANDER    SUNNY     72  50  45 W17G31    29.86F
EAGLE RIVER    SUNNY     69  49  48 W23G30    29.84F
LAND O LAKES   SUNNY     69  50  49 SW15G25   29.83F
PHILLIPS       SUNNY     68  53  58 SW13G26   29.85S
TOMAHAWK       SUNNY     69  51  53 SW10G17   29.89F
MEDFORD        MOSUNNY   67  52  57 W16G25    29.91F
MERRILL        NOT AVBL
$$

WIZ029-030-035-036-043>047-291500-
CENTRAL WISCONSIN

CITY           SKY/WX    TMP DP  RH WIND       PRES   REMARKS
WAUSAU         MOSUNNY   72  51  47 W15G22    29.90F
MOSINEE        SUNNY     70  55  60 W14       29.93F
MARSHFIELD     MOSUNNY   71  53  52 W14       29.94S
STEVENS POINT  PTSUNNY   70  54  56 W12G18    29.94F
WAUPACA        PTSUNNY   76  56  50 W13G18    29.93F
WAUTOMA        NOT AVBL
WISC RAPIDS    MOSUNNY   73  52  47 W13G21    29.96S
CAMP DOUGLAS   NOT AVBL
$$

WIZ011>013-019>022-031-037>040-048>050-291500-
NORTHEAST WISCONSIN

CITY           SKY/WX    TMP DP  RH WIND       PRES   REMARKS
ANTIGO         MOSUNNY   70  53  54 W14G24    29.90F
SHAWANO        PTSUNNY   75  57  54 W10G16    29.90F
OCONTO         PTSUNNY   76  57  52 W14G20    29.87F
STURGEON BAY   CLOUDY    75  57  53 W12       29.90F
GREEN BAY      PTSUNNY   77  58  51 W18G26    29.90F
MANITOWOC      NOT AVBL
APPLETON       MOSUNNY   73  57  56 W12G21    29.93F
CLINTONVILLE   PTSUNNY   73  54  49 W12G17    29.91S
OSHKOSH        PTSUNNY   76  59  55 W9        29.92F
$$

WIZ032>034-041-042-053>061-291500-
SOUTHWEST WISCONSIN

CITY           SKY/WX    TMP DP  RH WIND       PRES   REMARKS
LA CROSSE      SUNNY     75  52  44 W16       29.98R
SPARTA         MOSUNNY   73  54  51 W8        29.98S
VIROQUA        SUNNY     72  55  56 W8        30.01S
BOSCOBEL       PTSUNNY   75  61  61 SW6       30.01S
PRAIRIE DU CHI PTSUNNY   73  57  57 W6        30.01S
PLATTEVILLE    PTSUNNY   72  65  77 NW9       30.02S
$$

WIZ056-057-062-063-064-067-068-291500-
SOUTH CENTRAL WISCONSIN

CITY           SKY/WX    TMP DP  RH WIND       PRES   REMARKS
REEDSBURG      PTSUNNY   73  59  61 W6        29.98S
BARABOO/DELLS  PTSUNNY   73  55  51 W10G16    29.99R
LONE ROCK      NOT AVBL
MINERAL POINT  PTSUNNY   72  64  78 W6        30.03R
MADISON        PTSUNNY   73  64  73 NW6       29.98R
MIDDLETON      PTSUNNY   73  65  74 W8        30.00R
WATERTOWN      PTSUNNY   70  70 100 SW6       29.96R
MONROE         PTSUNNY   75  63  64 NW9       30.01R
JANESVILLE     MOSUNNY   73  64  73 W6        29.98S
$$

WIZ051-052-058>065-066-070>072-291500-
SOUTHEAST WISCONSIN

CITY           SKY/WX    TMP DP  RH WIND       PRES   REMARKS
MILWAUKEE      CLOUDY    77  64  64 NW12      29.95R
WAUKESHA       MOSUNNY   73  64  73 NW12      29.98R
MILWAUKEE/TIMM PTSUNNY   75  64  69 W8        29.96R
RACINE         CLOUDY    79  67  66 NW10G20   29.97R HX  81
BURLINGTON     PTSUNNY   72  62  71 NW8       29.97R
KENOSHA        CLOUDY    76  70  82 NW13G20   29.97R
FOND DU LAC    PTSUNNY   75  58  55 W13       29.93S
SHEBOYGAN      CLOUDY    76  64  66 W7        29.92S
WEST BEND      CLOUDY    73  66  78 W7        29.95R
JUNEAU         PTSUNNY   73  63  71 W9G18     29.96R
$$

LSZ147-162-291500-
LAKE SUPERIOR

STATION/POSITION TIME  TEMP    WIND        PRES    WAVE
                       AIR SEA DIR/SP/G            HT/PER
                 (UTC) (F)     (DEG/KT/KT) (MB)    (FT/S)
W MID LAKE BUOY  1250   66 61  220/ 21/ 23 1004.8R   5/ 6
DEVILS ISLAND    1300   68     230/ 26/ 35 1005.6R
PORT WING        1340   68     220/ 13/ 24 1007.1S
SAXON HARBOR     1337   70                 1007.8S
$$

LMZ867-665-643>646-291500-
LAKE MICHIGAN

STATION/POSITION TIME  TEMP    WIND        PRES    WAVE
                       AIR SEA DIR/SP/G            HT/PER
                 (UTC) (F)     (DEG/KT/KT) (MB)    (FT/S)
CHAMBERS ISLAND  1300   75     220/  7/ 17 1011.2R
S GREEN BAY BUOY 1300   75 74  250/ 16/ 19 1013.4R
N MID LAKE BUOY  1250   72 69  220/ 14/ 17 1009.8R   3/ 4
NORTHPORT PIER   1300   76     280/  6/ 12 1010.8R
SISTER BAY       1214   76     280/ 16/ 17   N/A
ALGOMA LAKESHORE 1312          270/  6/ 13   N/A
KEWAUNEE LAKESHO 1300   76     280/  6/ 11 1011.6R
SHEBOYGAN LAKESH 1300   77     300/  9/ 12 1012.8R
PORT WASHINGTON  1340   78     310/  5/ 11 1013.9R
ATWATER BUOY     1300   69     320/  8/  8 1014.6F
MILWAUKEE LAKESH 1300   76     300/ 10/ 15   N/A
KENOSHA   LAKESH 1300   77     300/  9/ 14 1013.5R
$$

TC  - TEMPERATURE IN CELSIUS
VSB - VISIBILITY IN STATUTE MILES
WCI - WIND CHILL INDEX
HX  - HEAT INDEX



USA.gov is the U.S. government's official web portal to all federal, state and local government web resources and services.